Regional Weather Roundup
Issued by NWS Green Bay, WI

Home | Current Version | Previous Version | Text Only | Print | Product List | Glossary On
Versions: 1 2 3 4 5 6 7 8 9 10 11 12 13 14 15 16 17 18 19 20 21 22 23 24 25 26 27 28 29 30 31 32 33 34 35 36 37 38 39 40 41 42 43 44 45 46 47 48 49 50
000
ASUS43 KGRB 252059
RWRGRB

NORTH-CENTRAL AND NORTHEAST WISCONSIN REGIONAL WEATHER ROUNDUP
NATIONAL WEATHER SERVICE GREEN BAY WI
400 PM CDT SAT OCT 25 2014

WIZ005-009-010>012-018-019-252200-
NORTH CENTRAL WISCONSIN

CITY           SKY/WX    TMP DP  RH WIND       PRES   REMARKS
IRONWOOD       SUNNY     57  27  30 W20G31    29.83S
MANITOWISH WTR NOT AVBL
ARBOR VITAE    NOT AVBL
EAGLE RIVER    NOT AVBL
LAND O LAKES   NOT AVBL
RHINELANDER    SUNNY     58  25  28 W20G30    29.85S
PHILLIPS       NOT AVBL
ANTIGO         NOT AVBL
TOMAHAWK       NOT AVBL
MERRILL        NOT AVBL
$$

WIZ013-073-252200-
NORTHEAST WISCONSIN

CITY           SKY/WX    TMP DP  RH WIND       PRES   REMARKS
IRON MOUNTAIN  SUNNY     61  22  22 NW24G35   29.76S
MARINETTE      SUNNY     63  23  22 NW13G24   29.76S
$$

WIZ017-030-035>037-045-252200-
CENTRAL WISCONSIN

CITY           SKY/WX    TMP DP  RH WIND       PRES   REMARKS
MEDFORD        NOT AVBL
WAUSAU         SUNNY     61  25  25 NW22G31   29.87R
MOSINEE        SUNNY     61  28  29 W23G29    29.90R
MARSHFIELD     SUNNY     61  29  29 W18G29    29.92S
WISC RAPIDS    SUNNY     63  26  24 W14G24    29.93R
STEVENS POINT  NOT AVBL
WAUPACA        NOT AVBL
SHAWANO        NOT AVBL
CLINTONVILLE   NOT AVBL
$$

WIZ038-039-048-051-252200-
FOX VALLEY

CITY           SKY/WX    TMP DP  RH WIND       PRES   REMARKS
NWS GREEN BAY  SUNNY     65  29  25 W15       29.82R
APPLETON       SUNNY     63  30  29 W17G23    29.86S
OSHKOSH        SUNNY     64  30  27 W20G29    29.86S
FOND DU LAC    SUNNY     65  30  27 W16       29.87F
$$

WIZ022-050-052-252200-
EAST CENTRAL WISCONSIN

CITY           SKY/WX    TMP DP  RH WIND       PRES   REMARKS
STURGEON BAY   SUNNY     63  30  29 NW17G24   29.79S
MANITOWOC      NOT AVBL
SHEBOYGAN      SUNNY     64  30  27 W21G32    29.84F
$$

LMZ563-521-522-541>543-252200-
LAKESHORE

STATION/POSITION TIME  TEMP    WIND        PRES    VSBY  WAVE
                       AIR SEA DIR/SP/G                  HT/PER
                 (UTC) (F)     (DEG/KT/KT) (MB)    (MI)  (FT/S)
SHEBOYGAN LKSHOR 2000   64 51  290/ 24/ 29 1010.6F
KEWAUNEE LKSHORE 2000   64     300/ 14/ 25 1008.1R
NORTHPORT PIER   2000   60     300/ 10/ 19 1007.1S
N MID LAKE BUOY  2000   55 51  280/ 12/ 16 1006.8R         2/ 4
CHAMBERS ISLAND  2000   63     310/  9/ 16 1008.1R
MENOMINEE LKSHOR 2000   63     270/ 12/ 20 1008.8R
$$



USA.gov is the U.S. government's official web portal to all federal, state and local government web resources and services.